Wind_Speed
30 24 18 17 17 18 19 20 20 21 24 24 23 22 22 22 22 22 22 22 23 24 23 21 22 23 22 22 21 20 21 21 21 21 20 19 18 17 16 16 16 15
30 23 16 16 17 17 17 17 18 20 22 23 22 23 23 23 23 23 23 24 25 25 23 22 22 22 22 22 20 20 21 22 21 20 19 18 17 17 16 15 15 15
28 22 15 14 15 16 15 14 15 18 20 21 21 23 24 24 24 24 24 25 25 24 23 23 23 23 22 21 20 22 23 22 20 19 18 17 17 16 16 16 16 16
26 21 16 14 14 16 15 14 15 17 19 20 20 23 25 25 25 25 25 25 24 24 24 24 24 23 21 21 21 22 22 20 19 18 17 17 17 16 16 16 16 16
23 21 18 15 15 16 16 15 16 18 21 23 23 24 25 26 26 26 25 24 23 23 24 25 24 22 21 21 22 21 20 19 18 17 17 18 18 17 17 18 18 18
21 20 17 15 16 18 18 17 19 21 24 25 25 24 24 25 25 24 24 23 23 23 24 25 24 23 22 22 21 20 18 18 18 18 19 19 20 20 20 20 20 19
21 18 16 16 17 18 18 19 22 24 24 24 23 23 22 23 23 22 22 22 23 23 24 25 24 24 24 23 21 19 19 19 20 21 22 22 22 22 22 22 21 21
20 19 18 17 17 18 18 20 23 23 23 24 24 23 22 22 22 21 21 22 23 23 24 25 24 23 23 22 20 20 20 21 22 23 24 24 24 24 23 23 22 21
22 21 20 19 19 21 22 23 23 23 23 24 23 22 21 22 22 21 21 22 22 22 24 24 22 22 22 21 21 22 23 24 25 25 26 26 26 24 23 22 22 21
24 24 21 21 22 24 25 25 24 23 22 22 21 21 21 21 21 19 19 21 22 23 23 22 22 23 23 23 23 24 25 26 26 27 27 27 26 25 23 22 22 21
26 25 22 22 23 25 25 25 24 22 21 22 21 20 21 22 21 18 18 20 23 24 23 21 22 24 25 25 24 23 24 26 28 28 28 27 26 24 23 22 22 21
23 23 22 22 23 24 25 25 23 22 21 21 20 18 19 21 21 20 19 20 22 23 22 21 22 23 24 25 24 23 23 26 28 29 28 27 26 24 24 24 23 22
18 18 21 22 22 22 24 24 22 21 21 20 20 19 19 21 23 22 20 20 21 22 21 21 21 22 22 23 23 23 24 26 27 28 27 26 25 25 25 25 24 23
17 18 20 22 21 22 24 23 21 20 19 18 20 21 21 22 23 22 21 21 22 22 22 22 22 23 23 24 23 24 24 25 25 25 25 25 25 25 25 24 23 22
16 18 19 21 22 23 23 22 20 19 19 21 22 23 22 22 23 22 21 22 22 22 21 21 22 23 23 23 23 23 23 23 23 24 24 24 24 24 23 22 21 20
15 16 17 19 21 22 22 22 21 20 22 23 24 25 24 23 22 22 22 22 21 21 21 21 21 21 21 21 21 22 22 23 24 24 23 23 23 23 21 21 21 21
13 14 14 17 19 21 22 23 22 21 23 24 25 26 25 23 23 23 23 22 21 21 21 21 21 21 21 21 21 22 23 23 23 23 23 23 22 22 21 22 22 22
13 13 13 15 17 20 22 22 21 21 22 24 25 26 25 24 24 24 24 23 23 22 22 21 22 23 23 23 23 23 23 23 24 24 23 23 23 22 22 22 22 23
13 14 14 15 17 20 22 21 21 22 22 22 23 23 23 24 24 24 25 25 24 24 23 23 24 25 24 24 24 23 22 22 23 23 23 23 23 23 22 22 22 23
11 13 14 15 17 19 20 21 22 23 23 21 21 21 22 23 24 24 25 25 26 25 25 25 25 25 24 23 23 23 22 22 23 23 24 23 23 23 23 22 23 24
9 10 12 15 18 19 19 20 22 24 24 23 21 21 23 23 23 24 25 26 26 26 26 26 25 24 24 24 25 25 24 22 23 23 22 21 22 23 23 23 23 23
8 8 10 13 18 20 20 22 23 23 24 23 22 23 23 23 23 24 26 27 27 27 27 26 25 24 24 25 26 27 26 23 21 20 20 19 20 21 22 23 23 23
8 8 9 10 13 16 18 22 24 23 22 23 23 23 22 22 22 24 26 26 26 26 25 25 24 24 25 25 26 27 25 22 19 20 22 23 23 22 22 22 23 24
8 8 8 9 9 11 15 19 21 21 21 23 25 24 22 21 21 21 22 24 25 25 24 22 21 21 22 23 24 25 24 21 20 22 24 26 25 24 24 24 26 28
10 10 10 10 9 10 15 19 21 22 24 25 26 26 26 25 23 20 19 21 23 26 26 23 21 20 21 21 21 23 24 24 24 26 27 28 27 27 29 30 32 33
14 13 12 12 11 11 14 17 19 22 25 27 29 29 29 27 24 22 20 20 21 24 24 22 22 22 22 22 23 26 27 26 27 28 29 30 31 32 34 36 37 38
Wind_Direction
245 245 248 252 255 255 255 253 250 242 233 228 227 225 220 216 217 221 226 230 231 232 234 231 227 226 227 228 230 235 241 242 241 240 238 236 233 230 228 229 232 234
249 245 242 248 251 252 253 250 245 242 236 229 224 222 221 218 217 219 223 226 229 232 234 231 225 221 219 221 227 235 240 241 240 239 237 235 234 232 232 232 234 234
254 249 242 247 250 247 246 247 243 240 238 234 226 222 223 222 219 219 220 224 227 232 233 229 223 219 218 223 229 233 236 236 236 236 236 236 237 237 237 235 234 231
254 251 248 252 253 247 244 246 244 239 239 239 230 222 224 224 221 220 220 222 226 229 230 226 222 221 224 228 230 231 232 232 232 234 236 239 240 240 238 234 232 229
245 245 249 250 249 243 239 242 243 240 241 238 230 223 223 224 222 221 220 220 222 224 224 221 221 223 226 228 230 231 232 230 230 233 235 237 238 236 235 233 231 231
232 236 240 238 239 237 236 241 246 246 243 237 230 225 224 226 225 224 222 219 218 219 220 218 219 223 224 225 228 231 231 231 231 232 233 233 233 232 233 235 236 237
228 227 227 228 232 233 236 244 247 245 240 234 229 226 228 232 231 227 224 221 218 218 220 220 220 221 221 222 226 229 230 229 229 230 231 231 231 232 235 238 241 243
227 225 224 227 229 227 233 242 241 236 232 231 229 225 226 228 229 229 226 223 221 219 220 221 220 219 220 222 226 229 228 228 228 228 229 231 232 234 237 241 244 248
226 232 232 232 231 228 232 233 230 228 229 231 230 227 225 222 225 229 224 219 219 218 219 219 217 216 218 224 230 232 229 228 227 228 229 231 234 236 239 243 247 250
230 237 236 234 234 235 233 226 221 224 228 230 230 227 225 225 227 225 217 215 217 216 217 219 218 217 218 223 230 233 233 231 228 228 230 232 235 238 241 244 247 249
230 233 233 234 234 235 231 219 216 221 223 227 228 225 226 230 227 217 210 212 215 216 218 222 223 224 224 226 229 232 235 235 233 232 232 233 236 240 243 245 247 248
235 234 233 232 232 232 226 218 217 218 218 223 226 225 229 227 217 211 210 211 212 216 221 224 227 228 229 230 233 234 237 238 238 236 234 235 238 241 244 245 245 246
245 240 235 232 229 225 221 218 217 215 217 222 223 224 225 217 211 214 218 216 215 218 221 225 228 231 234 236 238 240 241 241 240 238 235 235 238 241 243 244 245 247
249 243 238 231 222 217 219 219 216 215 220 224 221 220 221 220 220 224 226 222 218 216 217 222 228 234 239 242 243 244 243 240 237 236 235 236 239 241 243 245 248 252
245 241 236 227 217 215 220 222 218 218 221 222 221 221 224 228 230 231 231 228 221 214 214 220 228 235 238 238 237 237 235 233 234 234 236 238 240 242 245 249 253 256
244 240 234 224 215 215 222 225 221 218 220 223 227 229 231 234 234 234 235 233 227 220 214 218 227 232 231 228 227 227 228 230 232 234 236 239 242 246 250 254 257 258
247 242 233 221 215 217 224 226 221 221 223 226 228 231 235 238 238 236 236 235 233 227 218 216 223 228 228 227 226 227 229 232 235 238 240 244 248 252 255 256 257 257
250 244 233 223 220 224 228 226 224 227 227 225 226 230 234 236 236 236 235 234 233 230 222 218 222 226 228 229 228 230 234 239 244 248 250 252 255 255 256 256 256 257
255 246 234 229 230 233 233 228 226 230 229 223 223 227 229 232 233 233 234 233 231 229 225 221 224 227 229 230 231 233 238 243 247 250 252 254 255 256 256 256 257 258
263 248 234 233 236 236 231 224 223 228 229 222 222 227 230 233 235 235 235 233 230 229 227 225 227 229 231 234 237 238 240 241 243 245 247 249 252 254 255 256 259 261
271 254 240 237 236 231 224 222 225 228 227 225 229 236 238 239 240 241 241 237 232 230 229 229 230 231 233 235 239 242 245 246 247 248 250 252 253 253 254 255 257 261
275 264 256 247 238 227 219 221 228 228 227 232 241 244 243 244 247 248 247 241 235 233 233 233 233 234 236 236 238 244 249 250 251 255 260 262 259 256 255 254 254 257
274 266 260 253 246 238 228 225 227 227 228 239 247 244 240 244 249 251 251 245 236 233 236 238 237 236 238 240 242 245 249 250 254 259 261 259 257 255 255 256 260 264
271 268 261 252 249 253 249 238 231 230 233 239 243 240 236 240 244 246 249 247 240 235 235 235 236 237 239 241 243 244 245 244 247 253 255 253 253 253 252 254 260 264
265 263 263 260 249 247 251 243 231 230 233 233 235 237 238 240 241 239 242 246 246 244 239 231 229 233 238 240 243 245 244 240 239 244 250 252 253 253 251 252 254 256
268 262 259 261 256 248 251 249 240 239 239 232 230 233 236 238 239 238 239 241 244 247 247 241 237 238 238 239 242 247 249 248 245 245 249 251 253 253 255 256 257 258
Height
5755 5756 5758 5759 5760 5761 5762 5763 5764 5766 5767 5768 5769 5770 5770 5771 5772 5773 5775 5776 5778 5779 5780 5782 5783 5783 5784 5785 5785 5786 5787 5788 5789 5790 5790 5790 5791 5791 5792 5792 5793 5793
5754 5756 5757 5758 5759 5760 5761 5761 5762 5763 5765 5765 5766 5768 5768 5768 5769 5771 5772 5773 5775 5777 5778 5780 5781 5781 5782 5783 5784 5785 5785 5786 5787 5787 5787 5788 5788 5789 5790 5791 5791 5792
5753 5756 5757 5757 5758 5759 5760 5760 5760 5761 5763 5764 5764 5765 5766 5766 5767 5768 5769 5770 5772 5774 5776 5777 5778 5779 5780 5781 5782 5783 5783 5784 5784 5784 5784 5785 5786 5787 5788 5789 5790 5790
5752 5755 5756 5756 5756 5757 5758 5758 5758 5759 5761 5762 5762 5762 5763 5764 5764 5765 5766 5768 5770 5772 5773 5775 5776 5777 5779 5780 5780 5781 5781 5782 5782 5782 5782 5783 5784 5785 5786 5787 5788 5789
5748 5751 5753 5754 5754 5754 5755 5755 5756 5756 5757 5758 5759 5759 5760 5761 5762 5762 5764 5765 5767 5769 5771 5772 5774 5775 5777 5778 5778 5779 5779 5779 5780 5780 5781 5781 5782 5784 5785 5786 5787 5788
5744 5747 5749 5750 5750 5751 5751 5752 5752 5752 5753 5754 5756 5756 5758 5759 5760 5760 5761 5763 5765 5766 5768 5769 5771 5773 5774 5775 5776 5776 5777 5777 5778 5779 5779 5780 5781 5782 5783 5784 5785 5786
5741 5743 5744 5745 5746 5747 5748 5748 5748 5748 5750 5752 5753 5754 5756 5757 5758 5759 5760 5761 5762 5764 5765 5766 5768 5770 5771 5773 5773 5774 5775 5775 5776 5777 5778 5779 5780 5781 5782 5782 5784 5785
5738 5739 5740 5742 5743 5744 5745 5745 5744 5746 5748 5749 5750 5751 5752 5754 5756 5757 5758 5759 5760 5761 5762 5764 5766 5768 5769 5770 5771 5772 5773 5774 5775 5776 5777 5777 5778 5779 5780 5781 5782 5783
5735 5737 5739 5740 5740 5741 5741 5741 5742 5744 5745 5746 5747 5748 5749 5751 5753 5755 5755 5756 5758 5759 5760 5762 5764 5766 5767 5768 5769 5770 5771 5772 5773 5774 5775 5775 5776 5777 5779 5779 5780 5781
5732 5734 5737 5738 5738 5737 5738 5738 5740 5742 5743 5744 5745 5746 5747 5749 5751 5753 5753 5754 5756 5757 5758 5760 5762 5763 5764 5766 5767 5768 5769 5770 5771 5772 5772 5773 5774 5776 5777 5778 5778 5778
5728 5731 5734 5735 5734 5734 5735 5736 5738 5739 5740 5741 5743 5744 5745 5747 5749 5751 5752 5753 5754 5755 5756 5758 5760 5761 5762 5763 5764 5766 5767 5768 5769 5770 5770 5771 5773 5774 5774 5775 5775 5775
5726 5728 5731 5731 5730 5730 5732 5734 5735 5737 5738 5739 5741 5742 5744 5745 5747 5748 5750 5751 5752 5753 5754 5756 5758 5759 5760 5761 5762 5764 5765 5766 5767 5767 5768 5769 5770 5771 5771 5772 5772 5773
5725 5726 5728 5727 5727 5728 5729 5731 5732 5733 5736 5737 5739 5741 5742 5743 5744 5746 5748 5749 5750 5751 5752 5754 5756 5757 5758 5759 5760 5762 5763 5763 5764 5765 5765 5766 5767 5767 5768 5768 5769 5770
5722 5723 5724 5725 5725 5726 5727 5729 5729 5731 5734 5736 5737 5738 5740 5741 5742 5744 5746 5747 5748 5749 5750 5752 5753 5755 5756 5756 5758 5759 5759 5760 5761 5762 5762 5763 5763 5764 5765 5766 5767 5768
5720 5720 5721 5722 5723 5724 5726 5727 5728 5730 5732 5733 5734 5736 5738 5739 5741 5743 5744 5745 5746 5747 5748 5749 5750 5752 5752 5754 5755 5756 5756 5757 5758 5759 5759 5760 5760 5761 5762 5763 5764 5765
5719 5719 5719 5719 5721 5722 5724 5726 5727 5729 5730 5731 5733 5734 5736 5737 5739 5741 5742 5743 5744 5744 5745 5746 5748 5749 5750 5751 5752 5753 5754 5755 5756 5756 5756 5757 5758 5759 5760 5760 5761 5761
5717 5717 5717 5718 5719 5721 5722 5724 5726 5727 5728 5730 5731 5732 5734 5735 5737 5738 5739 5740 5741 5742 5743 5744 5745 5747 5748 5749 5750 5751 5752 5753 5753 5753 5754 5754 5755 5756 5757 5757 5758 5758
5715 5715 5716 5717 5718 5720 5721 5722 5724 5725 5726 5728 5729 5730 5732 5733 5734 5736 5737 5738 5739 5740 5741 5742 5743 5744 5745 5746 5747 5749 5750 5750 5750 5750 5751 5752 5753 5754 5754 5755 5755 5755
5714 5714 5715 5716 5717 5718 5719 5721 5722 5723 5724 5726 5727 5729 5730 5731 5732 5733 5735 5736 5737 5737 5739 5740 5741 5742 5743 5744 5745 5746 5747 5748 5748 5748 5749 5749 5750 5751 5752 5752 5752 5753
5713 5713 5714 5715 5716 5717 5718 5719 5720 5721 5722 5724 5725 5727 5728 5729 5730 5731 5732 5733 5734 5735 5736 5737 5738 5739 5741 5742 5743 5744 5744 5745 5746 5746 5747 5748 5748 5748 5748 5749 5749 5749
5713 5712 5713 5714 5714 5715 5716 5717 5718 5720 5721 5722 5723 5724 5725 5726 5727 5728 5729 5730 5731 5733 5733 5734 5736 5737 5738 5739 5740 5741 5742 5743 5744 5744 5745 5746 5746 5746 5746 5746 5746 5746
5712 5712 5712 5713 5713 5714 5715 5715 5716 5718 5719 5720 5721 5722 5723 5724 5725 5726 5727 5728 5729 5730 5731 5732 5733 5735 5736 5736 5737 5738 5740 5741 5742 5742 5743 5743 5743 5743 5743 5743 5743 5743
5711 5711 5712 5712 5712 5713 5714 5714 5715 5716 5718 5718 5719 5720 5721 5722 5723 5724 5724 5725 5727 5728 5728 5729 5731 5732 5733 5734 5735 5736 5738 5739 5740 5740 5740 5740 5740 5740 5740 5740 5740 5741
5710 5711 5711 5711 5712 5712 5713 5713 5714 5715 5716 5716 5716 5717 5719 5720 5720 5721 5722 5723 5725 5725 5726 5727 5728 5729 5730 5731 5733 5734 5735 5737 5738 5736 5735 5735 5736 5737 5737 5737 5737 5737
5710 5710 5710 5710 5711 5712 5712 5712 5713 5713 5714 5715 5715 5715 5716 5717 5718 5719 5720 5721 5722 5722 5722 5724 5725 5726 5728 5729 5730 5731 5732 5734 5734 5733 5731 5731 5732 5732 5732 5732 5733 5732
5708 5708 5709 5709 5710 5711 5711 5711 5711 5711 5712 5713 5712 5711 5712 5713 5715 5717 5717 5718 5719 5719 5720 5722 5723 5723 5724 5726 5727 5728 5729 5730 5730 5729 5728 5729 5729 5729 5728 5728 5728 5728